Location: アルンシュタイン
(50.0000°N, 10.0000°E)
Time: 06:09:59
(UTC+02:00)

Tiangong - Visible Passes

Search period start: 17 October 2021 00:00
Search period end: 27 October 2021 00:00
Orbit: 382 x 385 km, 41.5° (Epoch: 16 October)

Date Brightness Start Highest point End Pass type
(mag) Time Alt. Az. Time Alt. Az. Time Alt. Az.
19 Oct 3.9 20:31:29 10° SSW 20:31:47 11° SSW 20:31:47 11° SSW visible
20 Oct 3.5 19:32:09 10° S 19:33:33 12° SSE 19:34:33 11° SE visible
21 Oct 3.2 20:07:33 10° SW 20:09:27 17° S 20:09:27 17° S visible
22 Oct 3.4 19:07:52 10° SSW 19:09:47 15° SSE 19:11:42 10° SE visible
22 Oct 4.0 20:43:45 10° SW 20:44:17 12° SW 20:44:17 12° SW visible
23 Oct 3.1 19:43:44 10° SW 19:45:57 18° S 19:46:55 16° SSE visible
24 Oct 3.4 18:43:50 10° SW 18:45:59 17° S 18:48:08 10° SE visible
24 Oct 3.6 20:20:10 10° SW 20:21:43 15° SSW 20:21:43 15° SSW visible
25 Oct 3.4 19:19:57 10° SW 19:22:07 17° S 19:24:17 10° SE visible
26 Oct 3.7 19:56:46 10° SW 19:58:11 12° SSW 19:59:13 11° S visible
